Terug naar catalogus

VM-3.1

ActiefWetenschapSSO
NORAD 67273·PAYLOAD·🇷🇺 Russia
Deze satellietnaam is nog niet bevestigd door officiële bronnen.

Gelanceerd Dec 28, 2025 vanaf Vostochny Cosmodrome

Loading…

Volgende Passages (komende 24 uur)

TLE

VersSource: Space-Track

Epoch: Sep 13, 2026, 18:42 UTC

1 67273U 25313AB  26256.77984993  .00002146  00000-0  98010-4 0  9991
2 67273  97.3885 329.6108 0015558  63.9640 296.3196 15.21565129 39407

Volg VM-3.1 in realtime met AllMySat

Download on the App Store